Location: Amsterdam
(30.7274°N, 84.4357°W)
Time: 16:21:07
(UTC+00:00)

Injun/Solrad 3 - Pass Details

Date: 19 February 2026
Orbit: 871 x 985 km, 66.8° (Epoch: 11 March)

Event Time Altitude Azimuth Distance (km) Brightness Sun altitude
Rises 03:01:53 0° 322° (NW) 3,610 11.5 -46.2°
Reaches altitude 10° 03:04:41 10° 312° (NW) 2,679 10.8 -46.8°
Enters shadow 03:05:41 14° 307° (NW) 2,377 10.5 -47.0°
Maximum altitude 03:10:03 31° 253° (WSW) 1,628 - -47.9°
Drops below altitude 10° 03:15:31 10° 193° (SSW) 2,717 - -49.0°
Sets 03:18:23 0° 183° (S) 3,668 - -49.6°
